Darstellungsparameter: Aktuell verwendete Einstellungen:
Skalierung der Graphiken ... ?
xyx+y,   Skalierungsfaktor:      Skalierung: Modus: x, Faktor: 1
Darstellungszeitraum ... ?
Vom - - bis: - -   Zeitraum: 25.08.2010 - 29.08.2010
Min/Max/Avg-Anzeige ... ?
Zeige MMA aktuell
Zeige MMA Monat
Zeige MMA alles
Zeige --A aktuell
Zeige --A Monat
Zeige --A alles
Keine MMA-Anzeige
MMA:
Average (ber die Originaldaten)
MMA-Basis: 25.08.2010 - 29.08.2010
Quicknavigation für Darstellung... ?
Tage:      1T, 2T, 3T, 5T -1T -2T -3T -5T +1T +2T +3T +5T
Wochen: 1W, 2W, 3W -1W -2W -3W +1W +2W +3W
Monate: 1M, 3M, 6M -1M -3M -6M +1M +3M +6M
Jahre:    1J, 3J, 5J, 10J -1J -3J -5J -10J +1J +3J +5J +10J
Nutze für die Darstellung ... ?
Originaldaten oder Mittelwerte auf ...
Stundenbasis Tagesbasis Wochenbasis
Monatsbasis Jahresbasis      Datenbasis: Original-Daten
Darstellen als:
Statistik (Auto) Statistik J:M      Darstellung:
Zur Graphik,    zurück zur Übersicht aller Sensoren.
 
Tabellarische Datenbersicht: ?
 
Sensor: Nr:Datum:Temp:Abs-Feuchte:Windchill:Wind:
Aussen-T/F 1 25-08-2010 00:04:03 16.4 C 6.42 g/m*3 16.4 C 0 km/h
2 25-08-2010 00:16:03 16.4 C 6.56 g/m*3 16.4 C 0 km/h
3 25-08-2010 00:28:03 16.2 C 6.48 g/m*3 16.2 C 0 km/h
4 25-08-2010 00:40:04 16 C 6.54 g/m*3 16 C 0 km/h
5 25-08-2010 00:52:04 15.8 C 6.73 g/m*3 15.8 C 0 km/h
6 25-08-2010 01:04:04 15.8 C 6.73 g/m*3 15.8 C 0 km/h
7 25-08-2010 01:16:04 15.6 C 6.78 g/m*3 15.6 C 0 km/h
8 25-08-2010 01:28:04 15.5 C 6.87 g/m*3 15.5 C 0 km/h
9 25-08-2010 01:40:04 15.4 C 6.83 g/m*3 15.4 C 0 km/h
10 25-08-2010 01:52:04 15.3 C 6.79 g/m*3 15.3 C 0 km/h
11 25-08-2010 02:04:04 15.1 C 6.97 g/m*3 15.1 C 0 km/h
12 25-08-2010 02:16:04 14.8 C 7.09 g/m*3 14.8 C 0 km/h
13 25-08-2010 02:28:04 14.6 C 7.13 g/m*3 14.6 C 0 km/h
14 25-08-2010 02:40:04 14.5 C 7.21 g/m*3 14.5 C 0 km/h
15 25-08-2010 02:52:04 14.3 C 7.13 g/m*3 14.3 C 0 km/h
16 25-08-2010 03:04:04 14.2 C 7.2 g/m*3 14.2 C 0 km/h
17 25-08-2010 03:16:04 13.9 C 7.55 g/m*3 13.9 C 0 km/h
18 25-08-2010 03:28:04 13.7 C 7.58 g/m*3 13.7 C 0 km/h
19 25-08-2010 03:40:04 13.6 C 7.77 g/m*3 13.6 C 0 km/h
20 25-08-2010 03:52:04 13.4 C 7.67 g/m*3 13.4 C 0 km/h
21 25-08-2010 04:04:04 13.4 C 7.79 g/m*3 13.4 C 0 km/h
22 25-08-2010 04:16:04 13.4 C 7.79 g/m*3 13.4 C 0 km/h
23 25-08-2010 04:28:04 13.4 C 7.67 g/m*3 13.4 C 0 km/h
24 25-08-2010 04:40:04 13.4 C 7.67 g/m*3 13.4 C 0 km/h
25 25-08-2010 04:52:05 13.4 C 7.56 g/m*3 13.4 C 0 km/h
Sensor: Nr:Datum:Temp:Abs-Feuchte:Windchill:Wind:
Aussen-T/F 26 25-08-2010 05:04:05 13.6 C 7.53 g/m*3 13.6 C 0 km/h
27 25-08-2010 05:16:05 13.6 C 7.41 g/m*3 13.6 C 0 km/h
28 25-08-2010 05:28:05 13.4 C 7.44 g/m*3 13.4 C 0 km/h
29 25-08-2010 05:40:05 13.2 C 7.58 g/m*3 13.2 C 0 km/h
30 25-08-2010 05:52:05 13.1 C 7.65 g/m*3 13.1 C 0 km/h
31 25-08-2010 06:04:05 13 C 7.6 g/m*3 13 C 0 km/h
32 25-08-2010 06:16:05 13.1 C 7.65 g/m*3 13.1 C 0 km/h
33 25-08-2010 06:28:05 12.9 C 7.78 g/m*3 12.9 C 0 km/h
34 25-08-2010 06:40:05 12.9 C 7.78 g/m*3 12.9 C 0 km/h
35 25-08-2010 06:52:05 12.8 C 7.73 g/m*3 12.8 C 0 km/h
36 25-08-2010 07:04:02 12.7 C 7.79 g/m*3 12.7 C 0 km/h
37 25-08-2010 07:16:03 12.8 C 7.84 g/m*3 12.8 C 0 km/h
38 25-08-2010 07:28:03 12.8 C 7.84 g/m*3 12.8 C 0 km/h
39 25-08-2010 07:40:02 12.7 C 7.79 g/m*3 12.7 C 0 km/h
40 25-08-2010 07:52:02 12.8 C 7.95 g/m*3 12.8 C 0 km/h
41 25-08-2010 08:04:01 13.1 C 7.87 g/m*3 13.1 C 0 km/h
42 25-08-2010 08:16:01 13.4 C 7.9 g/m*3 13.4 C 0 km/h
43 25-08-2010 08:28:01 13.5 C 7.84 g/m*3 13.5 C 0 km/h
44 25-08-2010 08:40:01 13.8 C 7.86 g/m*3 13.8 C 0 km/h
45 25-08-2010 08:52:03 13.9 C 7.79 g/m*3 13.9 C 0 km/h
46 25-08-2010 09:04:02 14.2 C 7.82 g/m*3 14.2 C 0 km/h
47 25-08-2010 09:16:02 14.7 C 8.06 g/m*3 14.7 C 0 km/h
48 25-08-2010 09:28:03 14.9 C 7.9 g/m*3 14.9 C 0 km/h
49 25-08-2010 09:40:02 15.2 C 7.79 g/m*3 15.2 C 0 km/h
50 25-08-2010 09:52:02 15.6 C 7.98 g/m*3 15.6 C 0 km/h
Sensor: Nr:Datum:Temp:Abs-Feuchte:Windchill:Wind:
Aussen-T/F 51 25-08-2010 10:04:01 16.1 C 7.81 g/m*3 16.1 C 0 km/h
52 25-08-2010 10:16:02 16.3 C 7.77 g/m*3 16.3 C 0 km/h
53 25-08-2010 10:28:02 16.3 C 7.77 g/m*3 16.3 C 0 km/h
54 25-08-2010 10:40:02 16.3 C 7.77 g/m*3 16.3 C 0 km/h
55 25-08-2010 10:52:02 16.5 C 7.86 g/m*3 16.5 C 0 km/h
56 25-08-2010 11:04:02 17.1 C 7.71 g/m*3 17.1 C 0 km/h
57 25-08-2010 11:16:01 17.4 C 7.85 g/m*3 17.4 C 0 km/h
58 25-08-2010 11:28:01 17.7 C 7.85 g/m*3 17.7 C 0 km/h
59 25-08-2010 11:40:02 18.1 C 7.88 g/m*3 18.1 C 0 km/h
60 25-08-2010 11:52:02 19.2 C 7.75 g/m*3 19.2 C 0 km/h
61 25-08-2010 12:04:02 19.7 C 7.47 g/m*3 19.7 C 0 km/h
62 25-08-2010 12:16:01 19.9 C 7.39 g/m*3 19.9 C 0 km/h
63 25-08-2010 12:28:01 20.4 C 7.43 g/m*3 20.4 C 0 km/h
64 25-08-2010 12:40:02 20 C 6.91 g/m*3 20 C 0 km/h
65 25-08-2010 12:52:02 20 C 6.74 g/m*3 20 C 0 km/h
66 25-08-2010 13:04:02 20.4 C 6.9 g/m*3 20.4 C 0 km/h
67 25-08-2010 13:16:02 20.7 C 6.84 g/m*3 20.7 C 0 km/h
68 25-08-2010 13:28:02 20.9 C 6.56 g/m*3 20.9 C 0 km/h
69 25-08-2010 13:40:02 20.8 C 6.52 g/m*3 20.8 C 0 km/h
70 25-08-2010 13:52:01 21.3 C 6.52 g/m*3 21.3 C 0 km/h
71 25-08-2010 14:04:02 21.2 C 6.49 g/m*3 21.2 C 0 km/h
72 25-08-2010 14:16:01 21.2 C 6.3 g/m*3 21.2 C 0 km/h
73 25-08-2010 14:28:01 21.7 C 6.49 g/m*3 21.7 C 0 km/h
74 25-08-2010 14:40:01 21.3 C 6.52 g/m*3 21.3 C 0 km/h
75 25-08-2010 14:52:01 21.9 C 6.37 g/m*3 21.9 C 0 km/h
Sensor: Nr:Datum:Temp:Abs-Feuchte:Windchill:Wind:
Aussen-T/F 76 25-08-2010 15:04:02 22.5 C 6.39 g/m*3 22.5 C 0 km/h
77 25-08-2010 15:16:01 23.1 C 6.2 g/m*3 23.1 C 0 km/h
78 25-08-2010 15:28:01 23.9 C 6.06 g/m*3 23.9 C 0 km/h
79 25-08-2010 15:40:01 24.1 C 5.69 g/m*3 24.1 C 0 km/h
80 25-08-2010 15:52:01 24.1 C 6.13 g/m*3 24.1 C 0 km/h
81 25-08-2010 16:04:01 24.3 C 5.53 g/m*3 24.3 C 0 km/h
82 25-08-2010 16:16:02 24.3 C 5.53 g/m*3 24.3 C 0 km/h
83 25-08-2010 16:28:02 25.3 C 5.62 g/m*3 25.3 C 0 km/h
84 25-08-2010 16:40:01 24.7 C 5.66 g/m*3 24.7 C 0 km/h
85 25-08-2010 16:52:01 23.7 C 5.99 g/m*3 23.7 C 0 km/h
86 25-08-2010 17:04:02 23.4 C 6.73 g/m*3 23.4 C 0 km/h
87 25-08-2010 17:16:01 23.3 C 6.48 g/m*3 23.3 C 0 km/h
88 25-08-2010 17:28:01 23.1 C 6.41 g/m*3 23.1 C 0 km/h
89 25-08-2010 17:40:01 23.2 C 6.86 g/m*3 23.2 C 0 km/h
90 25-08-2010 17:52:01 23 C 6.78 g/m*3 23 C 0 km/h
91 25-08-2010 18:04:02 22.2 C 6.87 g/m*3 22.2 C 0 km/h
92 25-08-2010 18:16:02 22 C 6.79 g/m*3 22 C 0 km/h
93 25-08-2010 18:28:02 22 C 6.79 g/m*3 22 C 0 km/h
94 25-08-2010 18:40:01 21.8 C 7.48 g/m*3 21.8 C 0 km/h
95 25-08-2010 18:52:01 21.5 C 7.54 g/m*3 21.5 C 0 km/h
96 25-08-2010 19:04:01 20.8 C 7.97 g/m*3 20.8 C 0 km/h
97 25-08-2010 19:16:02 20.1 C 8 g/m*3 20.1 C 0 km/h
98 25-08-2010 19:28:02 20.2 C 7.87 g/m*3 20.2 C 0 km/h
99 25-08-2010 19:40:01 20 C 7.95 g/m*3 20 C 0 km/h
100 25-08-2010 19:52:02 20 C 7.78 g/m*3 20 C 0 km/h
Sensor: Nr:Datum:Temp:Abs-Feuchte:Windchill:Wind:
Aussen-T/F 101 25-08-2010 20:04:01 19.7 C 8.15 g/m*3 19.7 C 0 km/h
102 25-08-2010 20:16:02 19.4 C 8.18 g/m*3 19.4 C 0 km/h
103 25-08-2010 20:28:02 19 C 8.15 g/m*3 19 C 0 km/h
104 25-08-2010 20:40:01 18.8 C 8.21 g/m*3 18.8 C 0 km/h
105 25-08-2010 20:52:02 18.3 C 8.44 g/m*3 18.3 C 0 km/h
106 25-08-2010 21:04:02 18.1 C 8.19 g/m*3 18.1 C 0 km/h
107 25-08-2010 21:16:02 18.1 C 8.34 g/m*3 18.1 C 0 km/h
108 25-08-2010 21:28:02 18.1 C 8.34 g/m*3 18.1 C 0 km/h
109 25-08-2010 21:40:02 18.2 C 8.39 g/m*3 18.2 C 0 km/h
110 25-08-2010 21:52:02 18.1 C 8.5 g/m*3 18.1 C 0 km/h
111 25-08-2010 22:04:01 17.9 C 8.55 g/m*3 17.9 C 0 km/h
112 25-08-2010 22:17:04 17.7 C 8.45 g/m*3 17.7 C 0 km/h
113 25-08-2010 22:29:04 17.5 C 8.35 g/m*3 17.5 C 0 km/h
114 25-08-2010 22:41:04 17.4 C 8.6 g/m*3 17.4 C 0 km/h
115 25-08-2010 22:53:04 17.3 C 8.54 g/m*3 17.3 C 0 km/h
116 25-08-2010 23:05:04 17.2 C 8.64 g/m*3 17.2 C 0 km/h
117 25-08-2010 23:17:04 17.4 C 8.74 g/m*3 17.4 C 0 km/h
118 25-08-2010 23:29:04 17.4 C 8.74 g/m*3 17.4 C 0 km/h
119 25-08-2010 23:41:04 17.3 C 8.99 g/m*3 17.3 C 0 km/h
120 25-08-2010 23:53:04 17.2 C 8.93 g/m*3 17.2 C 0 km/h
121 26-08-2010 00:05:04 17.1 C 9.03 g/m*3 17.1 C 0 km/h
122 26-08-2010 00:17:04 17.2 C 9.08 g/m*3 17.2 C 0 km/h
123 26-08-2010 00:29:04 17.3 C 9.13 g/m*3 17.3 C 0 km/h
124 26-08-2010 00:41:04 17.4 C 9.04 g/m*3 17.4 C 0 km/h
125 26-08-2010 00:53:04 17.4 C 9.04 g/m*3 17.4 C 0 km/h
Sensor: Nr:Datum:Temp:Abs-Feuchte:Windchill:Wind:
Aussen-T/F 126 26-08-2010 01:05:05 17.5 C 9.24 g/m*3 17.5 C 0 km/h
127 26-08-2010 01:17:05 17.5 C 9.09 g/m*3 17.5 C 0 km/h
128 26-08-2010 01:29:05 17.5 C 9.09 g/m*3 17.5 C 0 km/h
129 26-08-2010 01:41:05 17.5 C 9.09 g/m*3 17.5 C 0 km/h
130 26-08-2010 01:53:05 17.4 C 9.04 g/m*3 17.4 C 0 km/h
131 26-08-2010 02:05:05 16.9 C 9.78 g/m*3 16.9 C 0 km/h
132 26-08-2010 02:17:05 17.1 C 10.19 g/m*3 17.1 C 0 km/h
133 26-08-2010 02:29:05 16.7 C 10.09 g/m*3 16.7 C 0 km/h
134 26-08-2010 02:41:05 17 C 9.84 g/m*3 17 C 0 km/h
135 26-08-2010 02:53:05 16.7 C 9.95 g/m*3 16.7 C 0 km/h
136 26-08-2010 03:05:05 16.8 C 10.29 g/m*3 16.8 C 0 km/h
137 26-08-2010 03:17:05 16.8 C 10.29 g/m*3 16.8 C 0 km/h
138 26-08-2010 03:29:05 16.9 C 9.92 g/m*3 16.9 C 0 km/h
139 26-08-2010 03:41:05 16.9 C 9.92 g/m*3 16.9 C 0 km/h
140 26-08-2010 03:53:05 16.9 C 9.78 g/m*3 16.9 C 0 km/h
141 26-08-2010 04:05:06 16.9 C 9.78 g/m*3 16.9 C 0 km/h
142 26-08-2010 04:17:06 17 C 9.69 g/m*3 17 C 0 km/h
143 26-08-2010 04:29:06 17 C 9.84 g/m*3 17 C 0 km/h
144 26-08-2010 04:41:06 16.9 C 9.92 g/m*3 16.9 C 0 km/h
145 26-08-2010 04:53:06 16.9 C 10.07 g/m*3 16.9 C 0 km/h
146 26-08-2010 05:05:06 17.3 C 10.31 g/m*3 17.3 C 0 km/h
147 26-08-2010 05:17:06 18.1 C 10.35 g/m*3 18.1 C 0 km/h
148 26-08-2010 05:29:06 18.5 C 10.28 g/m*3 18.5 C 0 km/h
149 26-08-2010 05:41:06 18.8 C 10.31 g/m*3 18.8 C 0 km/h
150 26-08-2010 05:53:06 18.7 C 10.25 g/m*3 18.7 C 0 km/h
Sensor: Nr:Datum:Temp:Abs-Feuchte:Windchill:Wind:
Aussen-T/F 151 26-08-2010 06:05:03 18.2 C 10.1 g/m*3 18.2 C 0 km/h
152 26-08-2010 06:17:03 18.1 C 10.35 g/m*3 18.1 C 0 km/h
153 26-08-2010 06:29:03 17.9 C 10.54 g/m*3 17.9 C 0 km/h
154 26-08-2010 06:41:03 18.1 C 10.82 g/m*3 18.1 C 0 km/h
155 26-08-2010 06:53:02 18.6 C 10.82 g/m*3 18.6 C 0 km/h
156 26-08-2010 07:05:02 18.9 C 10.69 g/m*3 18.9 C 0 km/h
157 26-08-2010 07:17:02 19 C 10.59 g/m*3 19 C 0 km/h
158 26-08-2010 07:29:02 19.2 C 10.55 g/m*3 19.2 C 0 km/h
159 26-08-2010 07:41:02 19.4 C 10.68 g/m*3 19.4 C 0 km/h
160 26-08-2010 07:53:02 19.8 C 10.93 g/m*3 19.8 C 0 km/h
161 26-08-2010 08:05:01 20 C 10.71 g/m*3 20 C 0 km/h
162 26-08-2010 08:17:02 20.1 C 10.95 g/m*3 20.1 C 0 km/h
163 26-08-2010 08:29:02 20.2 C 11.02 g/m*3 20.2 C 0 km/h
164 26-08-2010 08:41:01 20.1 C 11.3 g/m*3 20.1 C 0 km/h
165 26-08-2010 08:53:01 20.6 C 11.63 g/m*3 20.6 C 0 km/h
166 26-08-2010 09:05:02 20.8 C 11.41 g/m*3 20.8 C 0 km/h
167 26-08-2010 09:17:02 21.1 C 11.42 g/m*3 21.1 C 0 km/h
168 26-08-2010 09:29:02 21.5 C 11.31 g/m*3 21.5 C 0 km/h
169 26-08-2010 09:41:02 22 C 11.26 g/m*3 22 C 0 km/h
170 26-08-2010 09:53:01 22.2 C 11.19 g/m*3 22.2 C 0 km/h
171 26-08-2010 10:05:02 22.6 C 11.25 g/m*3 22.6 C 0 km/h
172 26-08-2010 10:17:02 22.6 C 11.25 g/m*3 22.6 C 0 km/h
173 26-08-2010 10:29:02 22.9 C 11.24 g/m*3 22.9 C 0 km/h
174 26-08-2010 10:41:01 22.7 C 11.11 g/m*3 22.7 C 0 km/h
175 26-08-2010 10:53:02 23 C 11.1 g/m*3 23 C 0 km/h
Sensor: Nr:Datum:Temp:Abs-Feuchte:Windchill:Wind:
Aussen-T/F 176 26-08-2010 11:05:01 23.2 C 11.23 g/m*3 23.2 C 0 km/h
177 26-08-2010 11:17:02 23.9 C 11.25 g/m*3 23.9 C 0 km/h
178 26-08-2010 11:29:03 23.5 C 11.21 g/m*3 23.5 C 0 km/h
179 26-08-2010 11:41:01 24.1 C 11.16 g/m*3 24.1 C 0 km/h
180 26-08-2010 11:53:02 24.1 C 10.94 g/m*3 24.1 C 0 km/h
181 26-08-2010 12:05:02 24.4 C 11.13 g/m*3 24.4 C 0 km/h
182 26-08-2010 12:17:02 23.8 C 10.97 g/m*3 23.8 C 0 km/h
183 26-08-2010 12:29:02 23.4 C 11.14 g/m*3 23.4 C 0 km/h
184 26-08-2010 12:41:03 23.2 C 11.23 g/m*3 23.2 C 0 km/h
185 26-08-2010 12:53:02 22.9 C 11.24 g/m*3 22.9 C 0 km/h
186 26-08-2010 13:05:02 22.7 C 11.31 g/m*3 22.7 C 0 km/h
187 26-08-2010 13:17:01 22.7 C 11.31 g/m*3 22.7 C 0 km/h
188 26-08-2010 13:29:01 22.9 C 11.24 g/m*3 22.9 C 0 km/h
189 26-08-2010 13:41:02 23.3 C 11.08 g/m*3 23.3 C 0 km/h
190 26-08-2010 13:53:02 23.2 C 11.02 g/m*3 23.2 C 0 km/h
191 26-08-2010 14:05:02 23.5 C 11.21 g/m*3 23.5 C 0 km/h
192 26-08-2010 14:17:02 23.9 C 11.25 g/m*3 23.9 C 0 km/h
193 26-08-2010 14:29:02 23.9 C 11.03 g/m*3 23.9 C 0 km/h
194 26-08-2010 14:41:02 23.8 C 11.19 g/m*3 23.8 C 0 km/h
195 26-08-2010 14:53:02 23.9 C 11.25 g/m*3 23.9 C 0 km/h
196 26-08-2010 15:05:02 23.9 C 11.47 g/m*3 23.9 C 0 km/h
197 26-08-2010 15:17:02 23.8 C 11.19 g/m*3 23.8 C 0 km/h
198 26-08-2010 15:29:02 23.7 C 11.34 g/m*3 23.7 C 0 km/h
199 26-08-2010 15:41:02 23.5 C 11.42 g/m*3 23.5 C 0 km/h
200 26-08-2010 15:53:02 23.5 C 11.21 g/m*3 23.5 C 0 km/h
Sensor: Nr:Datum:Temp:Abs-Feuchte:Windchill:Wind:
Aussen-T/F 201 26-08-2010 16:05:02 23.9 C 11.47 g/m*3 23.9 C 0 km/h
202 26-08-2010 16:17:02 23.8 C 11.4 g/m*3 23.8 C 0 km/h
203 26-08-2010 16:29:02 23.7 C 11.34 g/m*3 23.7 C 0 km/h
204 26-08-2010 16:41:02 24.2 C 11.22 g/m*3 24.2 C 0 km/h
205 26-08-2010 16:53:02 24.1 C 10.94 g/m*3 24.1 C 0 km/h
206 26-08-2010 17:05:02 23.9 C 11.25 g/m*3 23.9 C 0 km/h
207 26-08-2010 17:17:02 23.7 C 11.34 g/m*3 23.7 C 0 km/h
208 26-08-2010 17:29:02 23.6 C 11.27 g/m*3 23.6 C 0 km/h
209 26-08-2010 17:41:02 23.5 C 11.21 g/m*3 23.5 C 0 km/h
210 26-08-2010 17:53:02 23.4 C 11.35 g/m*3 23.4 C 0 km/h
211 26-08-2010 18:05:02 23.4 C 11.35 g/m*3 23.4 C 0 km/h
212 26-08-2010 18:17:02 23.3 C 11.5 g/m*3 23.3 C 0 km/h
213 26-08-2010 18:29:03 23.2 C 11.85 g/m*3 23.2 C 0 km/h
214 26-08-2010 18:41:01 23 C 11.72 g/m*3 23 C 0 km/h
215 26-08-2010 18:53:02 23 C 11.92 g/m*3 23 C 0 km/h
216 26-08-2010 19:05:01 22.6 C 12.25 g/m*3 22.6 C 0 km/h
217 26-08-2010 19:17:02 22.6 C 12.25 g/m*3 22.6 C 0 km/h
218 26-08-2010 19:29:02 21.6 C 13.28 g/m*3 21.6 C 0 km/h
219 26-08-2010 19:41:02 20.7 C 14.04 g/m*3 20.7 C 0 km/h
220 26-08-2010 19:53:02 20.8 C 14.67 g/m*3 20.8 C 0 km/h
221 26-08-2010 20:05:02 21 C 14.65 g/m*3 21 C 0 km/h
222 26-08-2010 20:17:02 20.9 C 14.57 g/m*3 20.9 C 0 km/h
223 26-08-2010 20:29:02 21 C 14.47 g/m*3 21 C 0 km/h
224 26-08-2010 20:41:02 20.9 C 14.39 g/m*3 20.9 C 0 km/h
225 26-08-2010 20:53:01 20.9 C 14.39 g/m*3 20.9 C 0 km/h
Sensor: Nr:Datum:Temp:Abs-Feuchte:Windchill:Wind:
Aussen-T/F 226 26-08-2010 21:05:02 20.7 C 14.04 g/m*3 20.7 C 0 km/h
227 26-08-2010 21:17:01 20.7 C 14.04 g/m*3 20.7 C 0 km/h
228 26-08-2010 21:29:01 20.4 C 13.98 g/m*3 20.4 C 0 km/h
229 26-08-2010 21:41:02 20.2 C 13.99 g/m*3 20.2 C 0 km/h
230 26-08-2010 21:53:02 20.1 C 14.08 g/m*3 20.1 C 0 km/h
231 26-08-2010 22:06:04 20 C 14.34 g/m*3 20 C 0 km/h
232 26-08-2010 22:18:04 19.8 C 14.52 g/m*3 19.8 C 0 km/h
233 26-08-2010 22:30:04 19.7 C 14.6 g/m*3 19.7 C 0 km/h
234 26-08-2010 22:42:04 19.7 C 14.77 g/m*3 19.7 C 0 km/h
235 26-08-2010 22:54:04 19.6 C 14.86 g/m*3 19.6 C 0 km/h
236 26-08-2010 23:06:04 19.5 C 14.77 g/m*3 19.5 C 0 km/h
237 26-08-2010 23:18:04 19.5 C 14.94 g/m*3 19.5 C 0 km/h
238 26-08-2010 23:30:04 19.5 C 14.94 g/m*3 19.5 C 0 km/h
239 26-08-2010 23:42:05 19.4 C 15.02 g/m*3 19.4 C 0 km/h
240 26-08-2010 23:54:05 19.3 C 15.09 g/m*3 19.3 C 0 km/h
241 27-08-2010 00:06:05 19.2 C 15.01 g/m*3 19.2 C 0 km/h
242 27-08-2010 00:18:05 19 C 14.83 g/m*3 19 C 0 km/h
243 27-08-2010 00:30:05 19 C 14.83 g/m*3 19 C 0 km/h
244 27-08-2010 00:42:05 18.9 C 14.9 g/m*3 18.9 C 0 km/h
245 27-08-2010 00:54:05 18.8 C 14.98 g/m*3 18.8 C 0 km/h
246 27-08-2010 01:06:05 18.7 C 14.89 g/m*3 18.7 C 0 km/h
247 27-08-2010 01:18:05 18.7 C 14.89 g/m*3 18.7 C 0 km/h
248 27-08-2010 01:30:05 18.8 C 14.98 g/m*3 18.8 C 0 km/h
249 27-08-2010 01:42:05 18.8 C 14.98 g/m*3 18.8 C 0 km/h
250 27-08-2010 01:54:05 18.8 C 15.14 g/m*3 18.8 C 0 km/h
Sensor: Nr:Datum:Temp:Abs-Feuchte:Windchill:Wind:
Aussen-T/F 251 27-08-2010 02:06:05 18.8 C 15.14 g/m*3 18.8 C 0 km/h
252 27-08-2010 02:18:05 18.7 C 15.05 g/m*3 18.7 C 0 km/h
253 27-08-2010 02:30:05 18.5 C 14.87 g/m*3 18.5 C 0 km/h
254 27-08-2010 02:42:05 18.6 C 14.96 g/m*3 18.6 C 0 km/h
255 27-08-2010 02:54:05 18.5 C 14.87 g/m*3 18.5 C 0 km/h
256 27-08-2010 03:06:05 18.4 C 14.78 g/m*3 18.4 C 0 km/h
257 27-08-2010 03:18:05 18.4 C 14.78 g/m*3 18.4 C 0 km/h
258 27-08-2010 03:30:05 18.4 C 14.78 g/m*3 18.4 C 0 km/h
259 27-08-2010 03:42:05 18.4 C 14.78 g/m*3 18.4 C 0 km/h
260 27-08-2010 03:54:05 18.3 C 14.7 g/m*3 18.3 C 0 km/h
261 27-08-2010 04:06:05 18.3 C 14.7 g/m*3 18.3 C 0 km/h
262 27-08-2010 04:18:06 18.3 C 14.7 g/m*3 18.3 C 0 km/h
263 27-08-2010 04:30:06 18.4 C 14.78 g/m*3 18.4 C 0 km/h
264 27-08-2010 04:42:06 18.4 C 14.78 g/m*3 18.4 C 0 km/h
265 27-08-2010 04:54:06 18.3 C 14.7 g/m*3 18.3 C 0 km/h
266 27-08-2010 05:06:06 18.3 C 14.85 g/m*3 18.3 C 0 km/h
267 27-08-2010 05:18:06 18.3 C 14.7 g/m*3 18.3 C 0 km/h
268 27-08-2010 05:30:06 18.4 C 14.78 g/m*3 18.4 C 0 km/h
269 27-08-2010 05:42:06 18.4 C 14.94 g/m*3 18.4 C 0 km/h
270 27-08-2010 05:54:06 18.6 C 15.12 g/m*3 18.6 C 0 km/h
271 27-08-2010 06:06:06 18.7 C 15.21 g/m*3 18.7 C 0 km/h
272 27-08-2010 06:18:06 18.8 C 15.3 g/m*3 18.8 C 0 km/h
273 27-08-2010 06:30:06 18.9 C 15.39 g/m*3 18.9 C 0 km/h
274 27-08-2010 06:42:06 18.9 C 15.39 g/m*3 18.9 C 0 km/h
275 27-08-2010 06:54:06 18.8 C 15.3 g/m*3 18.8 C 0 km/h
Sensor: Nr:Datum:Temp:Abs-Feuchte:Windchill:Wind:
Aussen-T/F 276 27-08-2010 07:06:06 18.8 C 15.14 g/m*3 18.8 C 0 km/h
277 27-08-2010 07:18:07 18.7 C 15.05 g/m*3 18.7 C 0 km/h
278 27-08-2010 07:30:07 18.7 C 15.05 g/m*3 18.7 C 0 km/h
279 27-08-2010 07:42:07 18.6 C 14.96 g/m*3 18.6 C 0 km/h
280 27-08-2010 07:54:01 18.6 C 14.96 g/m*3 18.6 C 0 km/h
281 27-08-2010 08:06:02 18.6 C 14.96 g/m*3 18.6 C 0 km/h
282 27-08-2010 08:18:01 18.6 C 14.96 g/m*3 18.6 C 0 km/h
283 27-08-2010 08:30:01 18.6 C 14.96 g/m*3 18.6 C 0 km/h
284 27-08-2010 08:42:01 18.5 C 14.87 g/m*3 18.5 C 0 km/h
285 27-08-2010 08:54:02 18.6 C 14.96 g/m*3 18.6 C 0 km/h
286 27-08-2010 09:06:01 18.6 C 14.96 g/m*3 18.6 C 0 km/h
287 27-08-2010 09:18:02 18.8 C 15.14 g/m*3 18.8 C 0 km/h
288 27-08-2010 09:30:02 19.5 C 15.27 g/m*3 19.5 C 0 km/h
289 27-08-2010 09:42:01 19.7 C 15.11 g/m*3 19.7 C 0 km/h
290 27-08-2010 09:54:02 19.7 C 14.77 g/m*3 19.7 C 0 km/h
291 27-08-2010 10:06:02 19.7 C 14.6 g/m*3 19.7 C 0 km/h
292 27-08-2010 10:18:02 19.8 C 14.52 g/m*3 19.8 C 0 km/h
293 27-08-2010 10:30:02 19.4 C 14.18 g/m*3 19.4 C 0 km/h
294 27-08-2010 10:42:03 19 C 14.18 g/m*3 19 C 0 km/h
295 27-08-2010 10:54:02 18.7 C 14.25 g/m*3 18.7 C 0 km/h
296 27-08-2010 11:06:02 18.5 C 14.4 g/m*3 18.5 C 0 km/h
297 27-08-2010 11:18:01 18.3 C 13.92 g/m*3 18.3 C 0 km/h
298 27-08-2010 11:30:01 18.1 C 13.44 g/m*3 18.1 C 0 km/h
299 27-08-2010 11:42:02 17.9 C 13.13 g/m*3 17.9 C 0 km/h
300 27-08-2010 11:54:02 18 C 13.06 g/m*3 18 C 0 km/h
Sensor: Nr:Datum:Temp:Abs-Feuchte:Windchill:Wind:
Aussen-T/F 301 27-08-2010 12:06:02 18.7 C 13.77 g/m*3 18.7 C 0 km/h
302 27-08-2010 12:18:02 19.5 C 13.93 g/m*3 19.5 C 0 km/h
303 27-08-2010 12:30:02 20.4 C 13.62 g/m*3 20.4 C 0 km/h
304 27-08-2010 12:42:02 20.5 C 12.99 g/m*3 20.5 C 0 km/h
305 27-08-2010 12:54:02 21.4 C 13.12 g/m*3 21.4 C 0 km/h
306 27-08-2010 13:06:02 21.9 C 12.93 g/m*3 21.9 C 0 km/h
307 27-08-2010 13:18:02 22.4 C 13.11 g/m*3 22.4 C 0 km/h
308 27-08-2010 13:30:02 22.8 C 12.6 g/m*3 22.8 C 0 km/h
309 27-08-2010 13:42:02 23.4 C 12.41 g/m*3 23.4 C 0 km/h
310 27-08-2010 13:54:02 24.1 C 11.82 g/m*3 24.1 C 0 km/h
311 27-08-2010 14:06:02 24.2 C 11.88 g/m*3 24.2 C 0 km/h
312 27-08-2010 14:18:03 23.6 C 11.7 g/m*3 23.6 C 0 km/h
313 27-08-2010 14:30:03 22.5 C 12.78 g/m*3 22.5 C 0 km/h
314 27-08-2010 14:42:02 17 C 11 g/m*3 17 C 0 km/h
315 27-08-2010 14:54:03 16.5 C 11.94 g/m*3 16.5 C 0 km/h
316 27-08-2010 15:06:02 16.7 C 12.65 g/m*3 16.7 C 0 km/h
317 27-08-2010 15:18:02 18.3 C 13.76 g/m*3 18.3 C 0 km/h
318 27-08-2010 15:30:02 19 C 13.85 g/m*3 19 C 0 km/h
319 27-08-2010 15:42:02 19.8 C 13.66 g/m*3 19.8 C 0 km/h
320 27-08-2010 15:54:02 20.8 C 13.4 g/m*3 20.8 C 0 km/h
321 27-08-2010 16:06:01 21.8 C 12.47 g/m*3 21.8 C 0 km/h
322 27-08-2010 16:18:02 21.7 C 12.59 g/m*3 21.7 C 0 km/h
323 27-08-2010 16:30:02 21.3 C 12.68 g/m*3 21.3 C 0 km/h
324 27-08-2010 16:42:02 21.7 C 13.35 g/m*3 21.7 C 0 km/h
325 27-08-2010 16:54:02 23 C 13.36 g/m*3 23 C 0 km/h
Sensor: Nr:Datum:Temp:Abs-Feuchte:Windchill:Wind:
Aussen-T/F 326 27-08-2010 17:06:01 22.8 C 11.99 g/m*3 22.8 C 0 km/h
327 27-08-2010 17:18:01 22.9 C 12.47 g/m*3 22.9 C 0 km/h
328 27-08-2010 17:30:01 21.5 C 11.5 g/m*3 21.5 C 0 km/h
329 27-08-2010 17:42:02 20.2 C 11.37 g/m*3 20.2 C 0 km/h
330 27-08-2010 17:54:02 19.1 C 11.15 g/m*3 19.1 C 0 km/h
331 27-08-2010 18:06:02 17.3 C 12.08 g/m*3 17.3 C 0 km/h
332 27-08-2010 18:18:02 16.6 C 12.15 g/m*3 16.6 C 0 km/h
333 27-08-2010 18:30:02 16.4 C 12.14 g/m*3 16.4 C 0 km/h
334 27-08-2010 18:42:02 17 C 12.3 g/m*3 17 C 0 km/h
335 27-08-2010 18:54:02 16.7 C 11.37 g/m*3 16.7 C 0 km/h
336 27-08-2010 19:06:02 16.3 C 11.38 g/m*3 16.3 C 0 km/h
337 27-08-2010 19:18:02 16 C 11.31 g/m*3 16 C 0 km/h
338 27-08-2010 19:30:02 15.5 C 10.84 g/m*3 15.5 C 0 km/h
339 27-08-2010 19:42:02 15.3 C 10.71 g/m*3 15.3 C 0 km/h
340 27-08-2010 19:54:02 15.1 C 10.45 g/m*3 15.1 C 0 km/h
341 27-08-2010 20:06:02 15.1 C 10.58 g/m*3 15.1 C 0 km/h
342 27-08-2010 20:18:02 15.3 C 10.71 g/m*3 15.3 C 0 km/h
343 27-08-2010 20:30:02 15.3 C 10.45 g/m*3 15.3 C 0 km/h
344 27-08-2010 20:42:02 15.2 C 10.25 g/m*3 15.2 C 0 km/h
345 27-08-2010 20:54:02 14.7 C 10.2 g/m*3 14.7 C 0 km/h
346 27-08-2010 21:06:02 14.5 C 10.32 g/m*3 14.5 C 0 km/h
347 27-08-2010 21:18:03 14.5 C 10.2 g/m*3 14.5 C 0 km/h
348 27-08-2010 21:30:03 14.6 C 10.14 g/m*3 14.6 C 0 km/h
349 27-08-2010 21:42:02 14.6 C 10.14 g/m*3 14.6 C 0 km/h
350 27-08-2010 21:54:03 14.7 C 10.07 g/m*3 14.7 C 0 km/h
Sensor: Nr:Datum:Temp:Abs-Feuchte:Windchill:Wind:
Aussen-T/F 351 27-08-2010 22:06:02 14.8 C 10.01 g/m*3 14.8 C 0 km/h
352 27-08-2010 22:18:02 14.8 C 10.01 g/m*3 14.8 C 0 km/h
353 27-08-2010 22:30:02 14.8 C 10.01 g/m*3 14.8 C 0 km/h
354 27-08-2010 22:43:28 14.8 C 10.01 g/m*3 14.8 C 0 km/h
355 27-08-2010 22:55:28 14.5 C 10.07 g/m*3 14.5 C 0 km/h
356 27-08-2010 23:07:28 13.8 C 9.65 g/m*3 13.8 C 0 km/h
357 27-08-2010 23:19:28 13.9 C 9.59 g/m*3 13.9 C 0 km/h
358 27-08-2010 23:31:28 13.8 C 9.29 g/m*3 13.8 C 0 km/h
359 27-08-2010 23:43:28 14.1 C 9.1 g/m*3 14.1 C 0 km/h
360 27-08-2010 23:55:28 14.2 C 9.04 g/m*3 14.2 C 0 km/h
361 28-08-2010 00:07:28 14.1 C 9.1 g/m*3 14.1 C 0 km/h
362 28-08-2010 00:19:28 13.9 C 9.11 g/m*3 13.9 C 0 km/h
363 28-08-2010 00:31:28 14 C 9.05 g/m*3 14 C 0 km/h
364 28-08-2010 00:43:28 13.7 C 9.35 g/m*3 13.7 C 0 km/h
365 28-08-2010 00:55:29 13.2 C 9.42 g/m*3 13.2 C 0 km/h
366 28-08-2010 01:07:29 13.2 C 9.64 g/m*3 13.2 C 0 km/h
367 28-08-2010 01:19:29 13.1 C 9.81 g/m*3 13.1 C 0 km/h
368 28-08-2010 01:31:29 13 C 9.87 g/m*3 13 C 0 km/h
369 28-08-2010 01:43:29 13.1 C 10.04 g/m*3 13.1 C 0 km/h
370 28-08-2010 01:55:29 13.1 C 10.04 g/m*3 13.1 C 0 km/h
371 28-08-2010 02:07:29 13.2 C 9.99 g/m*3 13.2 C 0 km/h
372 28-08-2010 02:19:29 13.2 C 9.99 g/m*3 13.2 C 0 km/h
373 28-08-2010 02:31:29 13.1 C 9.81 g/m*3 13.1 C 0 km/h
374 28-08-2010 02:43:29 13.1 C 9.7 g/m*3 13.1 C 0 km/h
375 28-08-2010 02:55:29 13.1 C 9.59 g/m*3 13.1 C 0 km/h
Sensor: Nr:Datum:Temp:Abs-Feuchte:Windchill:Wind:
Aussen-T/F 376 28-08-2010 03:07:29 13.1 C 9.59 g/m*3 13.1 C 0 km/h
377 28-08-2010 03:19:29 13.1 C 9.59 g/m*3 13.1 C 0 km/h
378 28-08-2010 03:31:29 13.1 C 9.47 g/m*3 13.1 C 0 km/h
379 28-08-2010 03:43:29 13.1 C 9.59 g/m*3 13.1 C 0 km/h
380 28-08-2010 03:55:29 13.1 C 9.59 g/m*3 13.1 C 0 km/h
381 28-08-2010 04:07:29 12.9 C 9.47 g/m*3 12.9 C 0 km/h
382 28-08-2010 04:19:30 12.9 C 9.47 g/m*3 12.9 C 0 km/h
383 28-08-2010 04:31:30 12.5 C 9.24 g/m*3 12.5 C 0 km/h
384 28-08-2010 04:43:30 12.3 C 9.23 g/m*3 12.3 C 0 km/h
385 28-08-2010 04:55:30 12.1 C 9.12 g/m*3 12.1 C 0 km/h
386 28-08-2010 05:07:30 12.2 C 9.28 g/m*3 12.2 C 0 km/h
387 28-08-2010 05:19:30 12.3 C 9.34 g/m*3 12.3 C 0 km/h
388 28-08-2010 05:31:30 12.1 C 9.01 g/m*3 12.1 C 0 km/h
389 28-08-2010 05:43:30 11.9 C 9 g/m*3 11.9 C 0 km/h
390 28-08-2010 05:55:30 12.1 C 9.12 g/m*3 12.1 C 0 km/h
391 28-08-2010 06:07:30 11.7 C 8.89 g/m*3 11.7 C 0 km/h
392 28-08-2010 06:19:30 11.6 C 8.83 g/m*3 11.6 C 0 km/h
393 28-08-2010 06:31:30 11.7 C 8.79 g/m*3 11.7 C 0 km/h
394 28-08-2010 06:43:30 11.5 C 8.68 g/m*3 11.5 C 0 km/h
395 28-08-2010 06:55:02 11.4 C 8.62 g/m*3 11.4 C 0 km/h
396 28-08-2010 07:07:02 11.3 C 8.67 g/m*3 11.3 C 0 km/h
397 28-08-2010 07:19:02 11.3 C 8.77 g/m*3 11.3 C 0 km/h
398 28-08-2010 07:31:01 11.6 C 8.94 g/m*3 11.6 C 0 km/h
399 28-08-2010 07:43:01 12 C 8.95 g/m*3 12 C 0 km/h
400 28-08-2010 07:55:02 12.4 C 9.07 g/m*3 12.4 C 0 km/h
Sensor: Nr:Datum:Temp:Abs-Feuchte:Windchill:Wind:
Aussen-T/F 401 28-08-2010 08:07:01 12.6 C 9.07 g/m*3 12.6 C 0 km/h
402 28-08-2010 08:19:02 12.8 C 8.96 g/m*3 12.8 C 0 km/h
403 28-08-2010 08:31:01 13 C 8.85 g/m*3 13 C 0 km/h
404 28-08-2010 08:43:01 13.4 C 8.95 g/m*3 13.4 C 0 km/h
405 28-08-2010 08:55:02 13.6 C 8.83 g/m*3 13.6 C 0 km/h
406 28-08-2010 09:07:02 14.3 C 8.97 g/m*3 14.3 C 0 km/h
407 28-08-2010 09:19:01 14.2 C 8.55 g/m*3 14.2 C 0 km/h
408 28-08-2010 09:31:02 14.1 C 8.62 g/m*3 14.1 C 0 km/h
409 28-08-2010 09:43:02 14.1 C 8.37 g/m*3 14.1 C 0 km/h
410 28-08-2010 09:55:02 14.4 C 8.41 g/m*3 14.4 C 0 km/h
411 28-08-2010 10:07:02 14.6 C 8.38 g/m*3 14.6 C 0 km/h
412 28-08-2010 10:19:02 14.6 C 8.38 g/m*3 14.6 C 0 km/h
413 28-08-2010 10:31:02 15.1 C 8.39 g/m*3 15.1 C 0 km/h
414 28-08-2010 10:43:02 15.6 C 8.51 g/m*3 15.6 C 0 km/h
415 28-08-2010 10:55:02 15.8 C 8.08 g/m*3 15.8 C 0 km/h
416 28-08-2010 11:07:03 15.8 C 8.21 g/m*3 15.8 C 0 km/h
417 28-08-2010 11:19:02 16.4 C 7.96 g/m*3 16.4 C 0 km/h
418 28-08-2010 11:31:03 16.9 C 7.77 g/m*3 16.9 C 0 km/h
419 28-08-2010 11:43:03 16.7 C 7.25 g/m*3 16.7 C 0 km/h
420 28-08-2010 11:55:02 16.4 C 7.82 g/m*3 16.4 C 0 km/h
421 28-08-2010 12:07:02 17 C 7.67 g/m*3 17 C 0 km/h
422 28-08-2010 12:19:02 18 C 7.22 g/m*3 18 C 0 km/h
423 28-08-2010 12:31:02 13.7 C 8.05 g/m*3 13.7 C 0 km/h
424 28-08-2010 12:43:02 13.7 C 9.35 g/m*3 13.7 C 0 km/h
425 28-08-2010 12:55:02 14.7 C 10.58 g/m*3 14.7 C 0 km/h
Sensor: Nr:Datum:Temp:Abs-Feuchte:Windchill:Wind:
Aussen-T/F 426 28-08-2010 13:07:02 15.7 C 10.84 g/m*3 15.7 C 0 km/h
427 28-08-2010 13:19:03 15.8 C 10.23 g/m*3 15.8 C 0 km/h
428 28-08-2010 13:31:02 15.5 C 10.31 g/m*3 15.5 C 0 km/h
429 28-08-2010 13:43:02 17.2 C 11.57 g/m*3 17.2 C 0 km/h
430 28-08-2010 13:55:03 17 C 10.13 g/m*3 17 C 0 km/h
431 28-08-2010 14:07:02 15.8 C 8.88 g/m*3 15.8 C 0 km/h
432 28-08-2010 14:19:03 16.8 C 8.01 g/m*3 16.8 C 0 km/h
433 28-08-2010 14:31:02 15.9 C 6.91 g/m*3 15.9 C 0 km/h
434 28-08-2010 14:43:02 14.9 C 7.01 g/m*3 14.9 C 0 km/h
435 28-08-2010 14:55:02 14.6 C 7.63 g/m*3 14.6 C 0 km/h
436 28-08-2010 15:07:02 14.7 C 7.68 g/m*3 14.7 C 0 km/h
437 28-08-2010 15:19:02 15.8 C 7.94 g/m*3 15.8 C 0 km/h
438 28-08-2010 15:31:03 17.6 C 7.65 g/m*3 17.6 C 0 km/h
439 28-08-2010 15:43:03 17.9 C 6.72 g/m*3 17.9 C 0 km/h
440 28-08-2010 15:55:02 17.6 C 7.05 g/m*3 17.6 C 0 km/h
441 28-08-2010 16:07:01 17 C 6.8 g/m*3 17 C 0 km/h
442 28-08-2010 16:19:02 14.9 C 7.65 g/m*3 14.9 C 0 km/h
443 28-08-2010 16:31:02 13.9 C 8.27 g/m*3 13.9 C 0 km/h
444 28-08-2010 16:43:02 14.5 C 8.95 g/m*3 14.5 C 0 km/h
445 28-08-2010 16:55:01 15.2 C 8.44 g/m*3 15.2 C 0 km/h
446 28-08-2010 17:07:02 15.9 C 9.21 g/m*3 15.9 C 0 km/h
447 28-08-2010 17:19:01 16 C 8.72 g/m*3 16 C 0 km/h
448 28-08-2010 17:31:02 15.7 C 8.3 g/m*3 15.7 C 0 km/h
449 28-08-2010 17:43:02 15.2 C 8.05 g/m*3 15.2 C 0 km/h
450 28-08-2010 17:55:01 15.2 C 9.09 g/m*3 15.2 C 0 km/h
Sensor: Nr:Datum:Temp:Abs-Feuchte:Windchill:Wind:
Aussen-T/F 451 28-08-2010 18:07:02 16.2 C 8.27 g/m*3 16.2 C 0 km/h
452 28-08-2010 18:19:01 17 C 6.95 g/m*3 17 C 0 km/h
453 28-08-2010 18:31:02 18.1 C 7.26 g/m*3 18.1 C 0 km/h
454 28-08-2010 18:43:02 18.3 C 7.04 g/m*3 18.3 C 0 km/h
455 28-08-2010 18:55:01 18.2 C 7.46 g/m*3 18.2 C 0 km/h
456 28-08-2010 19:07:02 16.8 C 7.86 g/m*3 16.8 C 0 km/h
457 28-08-2010 19:19:02 16.1 C 7.95 g/m*3 16.1 C 0 km/h
458 28-08-2010 19:31:02 15 C 8.59 g/m*3 15 C 0 km/h
459 28-08-2010 19:43:02 14.2 C 8.79 g/m*3 14.2 C 0 km/h
460 28-08-2010 19:55:01 14.2 C 8.3 g/m*3 14.2 C 0 km/h
461 28-08-2010 20:07:02 13.4 C 8.6 g/m*3 13.4 C 0 km/h
462 28-08-2010 20:19:02 13 C 8.85 g/m*3 13 C 0 km/h
463 28-08-2010 20:31:01 13.1 C 9.13 g/m*3 13.1 C 0 km/h
464 28-08-2010 20:43:01 13.1 C 9.24 g/m*3 13.1 C 0 km/h
465 28-08-2010 20:55:02 12.9 C 9.35 g/m*3 12.9 C 0 km/h
466 28-08-2010 21:07:01 12.8 C 9.3 g/m*3 12.8 C 0 km/h
467 28-08-2010 21:19:02 12.7 C 9.24 g/m*3 12.7 C 0 km/h
468 28-08-2010 21:31:01 12.4 C 9.07 g/m*3 12.4 C 0 km/h
469 28-08-2010 21:43:01 12.2 C 8.96 g/m*3 12.2 C 0 km/h
470 28-08-2010 21:55:02 12.2 C 9.06 g/m*3 12.2 C 0 km/h
471 28-08-2010 22:08:02 12.3 C 9.12 g/m*3 12.3 C 0 km/h
472 28-08-2010 22:20:02 12.3 C 9.01 g/m*3 12.3 C 0 km/h
473 28-08-2010 22:32:03 12.2 C 8.85 g/m*3 12.2 C 0 km/h
474 28-08-2010 22:44:03 12.1 C 8.79 g/m*3 12.1 C 0 km/h
475 28-08-2010 22:56:03 12.3 C 9.01 g/m*3 12.3 C 0 km/h
Sensor: Nr:Datum:Temp:Abs-Feuchte:Windchill:Wind:
Aussen-T/F 476 28-08-2010 23:08:03 12.6 C 8.96 g/m*3 12.6 C 0 km/h
477 28-08-2010 23:20:03 12.7 C 8.79 g/m*3 12.7 C 0 km/h
478 28-08-2010 23:32:03 12.4 C 8.74 g/m*3 12.4 C 0 km/h
479 28-08-2010 23:44:03 12.1 C 8.58 g/m*3 12.1 C 0 km/h
480 28-08-2010 23:56:03 12 C 8.53 g/m*3 12 C 0 km/h
481 29-08-2010 00:08:03 11.8 C 8.42 g/m*3 11.8 C 0 km/h
482 29-08-2010 00:20:03 11.8 C 8.42 g/m*3 11.8 C 0 km/h
483 29-08-2010 00:32:03 11.9 C 8.58 g/m*3 11.9 C 0 km/h
484 29-08-2010 00:44:03 12 C 8.53 g/m*3 12 C 0 km/h
485 29-08-2010 00:56:03 12 C 8.42 g/m*3 12 C 0 km/h
486 29-08-2010 01:08:03 11.7 C 8.47 g/m*3 11.7 C 0 km/h
487 29-08-2010 01:20:03 11.5 C 8.37 g/m*3 11.5 C 0 km/h
488 29-08-2010 01:32:03 11.5 C 8.47 g/m*3 11.5 C 0 km/h
489 29-08-2010 01:44:03 11.4 C 8.42 g/m*3 11.4 C 0 km/h
490 29-08-2010 01:56:03 11.4 C 8.52 g/m*3 11.4 C 0 km/h
491 29-08-2010 02:08:03 11.7 C 8.58 g/m*3 11.7 C 0 km/h
492 29-08-2010 02:20:03 11.7 C 8.47 g/m*3 11.7 C 0 km/h
493 29-08-2010 02:32:03 11.7 C 8.58 g/m*3 11.7 C 0 km/h
494 29-08-2010 02:44:04 11.8 C 8.53 g/m*3 11.8 C 0 km/h
495 29-08-2010 02:56:04 11.8 C 8.53 g/m*3 11.8 C 0 km/h
496 29-08-2010 03:08:04 11.8 C 8.42 g/m*3 11.8 C 0 km/h
497 29-08-2010 03:20:04 11.8 C 8.53 g/m*3 11.8 C 0 km/h
498 29-08-2010 03:32:04 11.8 C 8.53 g/m*3 11.8 C 0 km/h
499 29-08-2010 03:44:04 11.7 C 8.47 g/m*3 11.7 C 0 km/h
500 29-08-2010 03:56:04 11.7 C 8.47 g/m*3 11.7 C 0 km/h
Sensor: Nr:Datum:Temp:Abs-Feuchte:Windchill:Wind:
Aussen-T/F 501 29-08-2010 04:08:04 11.6 C 8.42 g/m*3 11.6 C 0 km/h
502 29-08-2010 04:20:04 11.4 C 8.31 g/m*3 11.4 C 0 km/h
503 29-08-2010 04:32:04 11.4 C 8.42 g/m*3 11.4 C 0 km/h
504 29-08-2010 04:44:04 11.4 C 8.42 g/m*3 11.4 C 0 km/h
505 29-08-2010 04:56:04 11.7 C 8.37 g/m*3 11.7 C 0 km/h
506 29-08-2010 05:08:04 11.8 C 8.31 g/m*3 11.8 C 0 km/h
507 29-08-2010 05:20:04 11.7 C 8.26 g/m*3 11.7 C 0 km/h
508 29-08-2010 05:32:04 11.7 C 8.26 g/m*3 11.7 C 0 km/h
509 29-08-2010 05:44:04 11.7 C 8.37 g/m*3 11.7 C 0 km/h
510 29-08-2010 05:56:04 11.8 C 8.42 g/m*3 11.8 C 0 km/h
511 29-08-2010 06:08:04 12.2 C 8.31 g/m*3 12.2 C 0 km/h
512 29-08-2010 06:20:04 12.1 C 8.26 g/m*3 12.1 C 0 km/h
513 29-08-2010 06:32:04 12.2 C 8.2 g/m*3 12.2 C 0 km/h
514 29-08-2010 06:44:04 12 C 8.31 g/m*3 12 C 0 km/h
515 29-08-2010 06:56:04 12 C 8.42 g/m*3 12 C 0 km/h
516 29-08-2010 07:08:02 12.1 C 8.36 g/m*3 12.1 C 0 km/h
517 29-08-2010 07:20:02 12.2 C 8.31 g/m*3 12.2 C 0 km/h
518 29-08-2010 07:32:02 12.2 C 8.31 g/m*3 12.2 C 0 km/h
519 29-08-2010 07:44:02 12.2 C 8.31 g/m*3 12.2 C 0 km/h
520 29-08-2010 07:56:02 12.3 C 8.36 g/m*3 12.3 C 0 km/h
521 29-08-2010 08:08:02 12.1 C 8.36 g/m*3 12.1 C 0 km/h
522 29-08-2010 08:20:01 12.2 C 8.42 g/m*3 12.2 C 0 km/h
523 29-08-2010 08:32:02 12.5 C 8.36 g/m*3 12.5 C 0 km/h
524 29-08-2010 08:44:02 12.6 C 8.3 g/m*3 12.6 C 0 km/h
525 29-08-2010 08:56:01 12.8 C 8.29 g/m*3 12.8 C 0 km/h
Sensor: Nr:Datum:Temp:Abs-Feuchte:Windchill:Wind:
Aussen-T/F 526 29-08-2010 09:08:02 13.5 C 8.3 g/m*3 13.5 C 0 km/h
527 29-08-2010 09:20:02 13.8 C 8.1 g/m*3 13.8 C 0 km/h
528 29-08-2010 09:32:01 14 C 8.08 g/m*3 14 C 0 km/h
529 29-08-2010 09:44:01 14.3 C 8.23 g/m*3 14.3 C 0 km/h
530 29-08-2010 09:56:03 14.4 C 8.16 g/m*3 14.4 C 0 km/h
531 29-08-2010 10:08:03 14.9 C 8.28 g/m*3 14.9 C 0 km/h
532 29-08-2010 10:20:03 15.3 C 7.97 g/m*3 15.3 C 0 km/h
533 29-08-2010 10:32:02 15.3 C 7.97 g/m*3 15.3 C 0 km/h
534 29-08-2010 10:44:02 15.7 C 8.03 g/m*3 15.7 C 0 km/h
535 29-08-2010 10:56:01 15.8 C 7.94 g/m*3 15.8 C 0 km/h
536 29-08-2010 11:08:02 16.3 C 8.05 g/m*3 16.3 C 0 km/h
537 29-08-2010 11:20:01 16.4 C 7.96 g/m*3 16.4 C 0 km/h
538 29-08-2010 11:32:01 16.6 C 7.91 g/m*3 16.6 C 0 km/h
539 29-08-2010 11:44:01 16 C 7.77 g/m*3 16 C 0 km/h
540 29-08-2010 11:56:01 16 C 7.9 g/m*3 16 C 0 km/h
541 29-08-2010 12:08:01 15.9 C 7.85 g/m*3 15.9 C 0 km/h
542 29-08-2010 12:20:02 14 C 9.17 g/m*3 14 C 0 km/h
543 29-08-2010 12:32:01 14.6 C 9.76 g/m*3 14.6 C 0 km/h
544 29-08-2010 12:44:01 15.1 C 9.16 g/m*3 15.1 C 0 km/h
545 29-08-2010 12:56:03 16 C 9.13 g/m*3 16 C 0 km/h
546 29-08-2010 13:08:02 16.9 C 8.92 g/m*3 16.9 C 0 km/h
547 29-08-2010 13:20:02 16.9 C 8.63 g/m*3 16.9 C 0 km/h
548 29-08-2010 13:32:02 16.4 C 8.37 g/m*3 16.4 C 0 km/h
549 29-08-2010 13:44:02 15.3 C 8.62 g/m*3 15.3 C 0 km/h
550 29-08-2010 13:56:02 14.7 C 8.94 g/m*3 14.7 C 0 km/h
Sensor: Nr:Datum:Temp:Abs-Feuchte:Windchill:Wind:
Aussen-T/F 551 29-08-2010 14:08:01 15.2 C 8.83 g/m*3 15.2 C 0 km/h
552 29-08-2010 14:20:02 16.4 C 8.51 g/m*3 16.4 C 0 km/h
553 29-08-2010 14:32:02 17 C 7.96 g/m*3 17 C 0 km/h
554 29-08-2010 14:44:02 17.1 C 8.3 g/m*3 17.1 C 0 km/h
555 29-08-2010 14:56:01 16.6 C 8.33 g/m*3 16.6 C 0 km/h
556 29-08-2010 15:08:01 15.7 C 8.3 g/m*3 15.7 C 0 km/h
557 29-08-2010 15:20:01 15.5 C 8.2 g/m*3 15.5 C 0 km/h
558 29-08-2010 15:32:02 14.2 C 8.91 g/m*3 14.2 C 0 km/h
559 29-08-2010 15:44:02 14.7 C 9.69 g/m*3 14.7 C 0 km/h
560 29-08-2010 15:56:02 15.3 C 9.4 g/m*3 15.3 C 0 km/h
561 29-08-2010 16:08:02 15.1 C 9.03 g/m*3 15.1 C 0 km/h
562 29-08-2010 16:20:02 15.5 C 8.99 g/m*3 15.5 C 0 km/h
563 29-08-2010 16:32:02 15.9 C 8.53 g/m*3 15.9 C 0 km/h
564 29-08-2010 16:44:03 16.2 C 8.14 g/m*3 16.2 C 0 km/h
565 29-08-2010 16:56:02 16.1 C 7.81 g/m*3 16.1 C 0 km/h
566 29-08-2010 17:08:02 15.9 C 7.85 g/m*3 15.9 C 0 km/h
567 29-08-2010 17:20:02 15.6 C 7.98 g/m*3 15.6 C 0 km/h
568 29-08-2010 17:32:02 15.2 C 8.18 g/m*3 15.2 C 0 km/h
569 29-08-2010 17:44:02 14.1 C 8.74 g/m*3 14.1 C 0 km/h
570 29-08-2010 17:56:02 14 C 8.68 g/m*3 14 C 0 km/h
571 29-08-2010 18:08:02 13.8 C 8.94 g/m*3 13.8 C 0 km/h
572 29-08-2010 18:20:01 13.4 C 9.3 g/m*3 13.4 C 0 km/h
573 29-08-2010 18:32:01 13.1 C 9.59 g/m*3 13.1 C 0 km/h
574 29-08-2010 18:44:01 12.7 C 9.46 g/m*3 12.7 C 0 km/h
575 29-08-2010 18:56:02 12.3 C 9.23 g/m*3 12.3 C 0 km/h
Sensor: Nr:Datum:Temp:Abs-Feuchte:Windchill:Wind:
Aussen-T/F 576 29-08-2010 19:08:02 12.2 C 9.28 g/m*3 12.2 C 0 km/h
577 29-08-2010 19:20:01 12.2 C 9.39 g/m*3 12.2 C 0 km/h
578 29-08-2010 19:32:02 12 C 9.38 g/m*3 12 C 0 km/h
579 29-08-2010 19:44:02 11.8 C 9.26 g/m*3 11.8 C 0 km/h
580 29-08-2010 19:56:02 11.8 C 9.16 g/m*3 11.8 C 0 km/h
581 29-08-2010 20:08:02 11.8 C 8.95 g/m*3 11.8 C 0 km/h
582 29-08-2010 20:20:03 11.8 C 8.95 g/m*3 11.8 C 0 km/h
583 29-08-2010 20:32:02 11.7 C 8.89 g/m*3 11.7 C 0 km/h
584 29-08-2010 20:44:02 11.7 C 8.99 g/m*3 11.7 C 0 km/h
585 29-08-2010 20:56:01 11.9 C 9 g/m*3 11.9 C 0 km/h
586 29-08-2010 21:08:01 12 C 8.95 g/m*3 12 C 0 km/h
587 29-08-2010 21:20:02 12.2 C 8.96 g/m*3 12.2 C 0 km/h
588 29-08-2010 21:32:01 12.3 C 9.01 g/m*3 12.3 C 0 km/h
589 29-08-2010 21:44:01 12 C 8.95 g/m*3 12 C 0 km/h
590 29-08-2010 21:56:02 9.7 C 7.74 g/m*3 9.7 C 0 km/h
591 29-08-2010 22:09:03 9.3 C 7.82 g/m*3 9.3 C 0 km/h
592 29-08-2010 22:21:03 9.2 C 7.95 g/m*3 9.2 C 0 km/h
593 29-08-2010 22:33:03 9.2 C 8.04 g/m*3 9.2 C 0 km/h
594 29-08-2010 22:45:03 9.2 C 8.13 g/m*3 9.2 C 0 km/h
595 29-08-2010 22:57:03 9.1 C 8.16 g/m*3 9.1 C 0 km/h
596 29-08-2010 23:09:03 9 C 8.11 g/m*3 9 C 0 km/h
597 29-08-2010 23:21:03 9 C 8.11 g/m*3 9 C 0 km/h
598 29-08-2010 23:33:03 9 C 8.11 g/m*3 9 C 0 km/h
599 29-08-2010 23:45:03 9.3 C 8.27 g/m*3 9.3 C 0 km/h
600 29-08-2010 23:57:03 9.3 C 8.18 g/m*3 9.3 C 0 km/h

Legende:
   Min
   Max


Maximal/Minimal-Werte vom 25.08.2010 - 29.08.2010

Sensor Min Max Avg
Temp
(Aussen-T/F)
9 °C
29-08-2010  23:09:03
25.3 °C
25-08-2010  16:28:02
16.76 °C
Abs-Feuchte
(Aussen-T/F)
5.53 g/m*3
25-08-2010  16:04:01
15.39 g/m*3
27-08-2010  06:30:06
9.85 g/m*3
Windchill
(Aussen-T/F)
9 C
29-08-2010  23:09:03
25.3 C
25-08-2010  16:28:02
16.73 C

Die Daten stammen von einer Davis Vantage Pro 2 Wetter-Station und werden unter Linux mit der Software wview2wettercgi und aufbereitet. Alle Angaben erfolgen ohne Gewähr für ihre Vollständigkeit oder Richtigkeit.
Kontakt: Rainer Krienke krienke@uni-koblenz.de . Meine Webseiten an der Uni Koblenz oder privat.
Version: $Revision: 0.78 $